Weather in Kozmino

Russia / Primorsky Krai     42°43′12″N   133°01′54″E
temp.,
°C
wind,
m/s
gust,
m/s
humid.,
%
clouds,
%
prec.,
mm/h
press.,
hPa
HPBL,
m
13 april, tue
tue1301:00+5ese4787100 0.3 1014153
04:00+5e4797100 6.7 1009175
07:00+6ene4597100 8.9 100476
10:00+6nw4498100 12.9 100197
13:00+6nnw9137427 0.6 1002565
16:00+6nw813609 0.6 1004729
19:00+5nw611600 0.0 1007802
22:00+3nw59540 0.0 1010353
14 april, wed
wed1401:00+2nw485310 0.0 1012393
04:00+1nw35530 0.0 1013644
07:00+1wnw48482 0.0 10141106
10:00+3w45430 0.0 1014894
13:00+3wsw684867 0.0 1014695
16:00+3sw47559 0.0 1013575
19:00+3ne11622 0.0 1013153
22:00+3ese11742 0.0 101510
15 april, thu
thu1501:00+3ene22730 0.0 101513
04:00+2nw01820 0.0 101511
07:00+2nne22745 0.0 101624
10:00+6ssw13560 0.0 1017144
13:00+7s2457100 0.0 1017298
16:00+8sse245960 0.0 1016240
19:00+7ese3573100 0.0 1016165
22:00+6e3378100 0.0 101719
16 april, fri
fri1601:00+5e468915 0.0 101796
04:00+6ese61093100 0.1 1015298
07:00+5ese71387100 0.1 1013388
10:00+6ese81482100 0.1 1011445
13:00+7se91588100 1.3 1009496
16:00+7se6108911 2.5 1007474
19:00+5sse5893100 1.2 1008460
22:00+5e3394100 1.9 101033
17 april, sat
sat1701:00+5e459212 0.0 101054
04:00+4e3490100 0.0 100944
07:00+4e4489100 0.0 100959
10:00+6e3578100 0.0 1007168
13:00+6ne1285100 1.0 1005278
16:00+4wsw2397100 2.8 1004130
19:00+4w5892100 0.3 1004241
22:00+4wnw51288100 0.3 1004316